Location: McFarlands Corners
(41.4117°N, 81.3382°W)
Time: 05:40:01
(UTC+00:00)

Tiros 1 - Pass Details

Date: 23 February 2026
Orbit: 618 x 649 km, 48.4° (Epoch: 5 March)

Event Time Altitude Azimuth Distance (km) Brightness Sun altitude
Rises 16:41:13 0° 298° (WNW) 2,905 10.2 37.3°
Reaches altitude 10° 16:43:34 10° 302° (WNW) 1,992 9.4 37.4°
Maximum altitude 16:48:06 62° 23° (NNE) 698 7.6 37.6°
Drops below altitude 10° 16:52:36 10° 105° (ESE) 1,976 10.1 37.9°
Sets 16:54:55 0° 109° (ESE) 2,879 10.8 38.0°
